Location: Julian California
(33.0790°N, 116.6010°W)
Time: 08:24:32
(UTC-07:00)

ASTRO E2 - Pass Details

Date: 19 May 2017
Orbit: 515 x 522 km, 31.4° (Epoch: 21 May)

Event Time Altitude Azimuth Distance (km) Brightness Sun altitude
Rises 20:32:42 0° 239° (WSW) 2,606 6.7 -10.1°
Reaches altitude 10° 20:35:03 10° 231° (SW) 1,722 5.6 -10.6°
Maximum altitude 20:38:43 37° 163° (SSE) 808 3.3 -11.2°
Enters shadow 20:41:28 16° 102° (ESE) 1,397 4.3 -11.7°
